This is the latest recevied weather packets stored in our database for station/object KK7KHO. If no packets are shown the sender has not sent any weather packets the latest 10 day(s).
| Time | Temp. | Humidity | Pressure | Rain* | Wind** | Luminosity | Snow |
|---|---|---|---|---|---|---|---|
| 1777420041 | 12.78° C | 81% | 1022.7 hPa | 0 mm | - | 92 W/m² | - |
| 1777419738 | 12.78° C | 81% | 1022.6 hPa | 0 mm | - | 90 W/m² | - |
| 1777419436 | 12.78° C | 81% | 1022.7 hPa | 0 mm | - | 85 W/m² | - |
| 1777419135 | 12.78° C | 79% | 1022.7 hPa | 0 mm | - | 76 W/m² | - |
| 1777418830 | 12.78° C | 82% | 1022.5 hPa | 0 mm | - | 72 W/m² | - |
| 1777418526 | 12.78° C | 81% | 1022.7 hPa | 0 mm | - | 75 W/m² | - |
| 1777418223 | 12.78° C | 81% | 1022.8 hPa | 0 mm | - | 81 W/m² | - |
| 1777417918 | 12.78° C | 82% | 1022.7 hPa | 0 mm | - | 89 W/m² | - |
| 1777417615 | 12.78° C | 81% | 1022.7 hPa | 0 mm | - | 93 W/m² | - |
| 1777417310 | 12.78° C | 82% | 1022.7 hPa | 0 mm | - | 97 W/m² | - |
| 1777417007 | 13.33° C | 80% | 1022.7 hPa | 0 mm | - | 100 W/m² | - |
| 1777416702 | 13.33° C | 82% | 1022.6 hPa | 0 mm | - | 117 W/m² | - |
| 1777416397 | 12.78° C | 83% | 1022.8 hPa | 0 mm | - | 131 W/m² | - |
| 1777416093 | 12.78° C | 84% | 1022.7 hPa | 0 mm | - | 114 W/m² | - |
| 1777415787 | 12.78° C | 83% | 1022.7 hPa | 0 mm | - | 93 W/m² | - |
| 1777415483 | 12.78° C | 82% | 1022.7 hPa | 0 mm | - | 144 W/m² | - |
| 1777415179 | 12.78° C | 83% | 1022.4 hPa | 0 mm | - | 192 W/m² | - |
| 1777414875 | 12.78° C | 83% | 1022.7 hPa | 0 mm | - | 224 W/m² | - |
| 1777414574 | 12.78° C | 84% | 1022.7 hPa | 0 mm | - | 246 W/m² | - |
| 1777414269 | 12.78° C | 86% | 1022.5 hPa | 0 mm | - | 318 W/m² | - |
| 1777413964 | 12.22° C | 86% | 1022.7 hPa | 0 mm | - | 184 W/m² | - |
| 1777413659 | 12.78° C | 85% | 1022.7 hPa | 0 mm | - | 151 W/m² | - |
| 1777413356 | 12.22° C | 86% | 1022.5 hPa | 0 mm | - | 148 W/m² | - |
| 1777413051 | 12.22° C | 85% | 1022.5 hPa | 0 mm | - | 104 W/m² | - |
| 1777412747 | 12.22° C | 86% | 1022.6 hPa | 0 mm | - | 112 W/m² | - |
* Rain latest hour (hover to see other rain measurements)
** Current wind speed in m/s (hover to see current wind gust speed)